Regional Weather Roundup
Issued by NWS

Home | Current Version | Previous Version | Text Only | Print | Product List | Glossary On
Versions: 1 2 3 4 5 6 7 8 9 10 11 12 13 14 15 16 17 18 19 20 21 22 23 24 25 26 27 28 29 30 31 32 33 34 35 36 37 38 39 40 41 42 43 44 45 46 47 48 49 50
000
ASUS44 KEWX 250502
RWRTX
SOUTH TEXAS REGIONAL WEATHER ROUNDUP
NATIONAL WEATHER SERVICE AUSTIN/SAN ANTONIO TX
1200 AM CDT SUN SEP 25 2016

NOTE: "FAIR" INDICATED FEW OR NO CLOUDS BELOW 12,000 FEET WITH NO
SIGNIFICANT WEATHER AND/OR OBSTRUCTIONS TO VISIBILITY.

* - THESE STATIONS ARE NOT NWS OR FAA STATIONS...AND ARE NOT SUBJECT
    TO NWS AND FAA QUALITY CONTROL.

TXZ171-172-183>190-250600-
TEXAS HILL COUNTRY AND EDWARDS PLATEAU

CITY           SKY/WX    TMP DP  RH WIND       PRES   REMARKS
JUNCTION       CLOUDY    80  70  71 S8        29.96S
*LLANO         CLOUDY    77  77 100 SE3       29.98F
BURNET         CLOUDY    77  71  82 SE7       29.99F
*HORSESHOE BAY CLOUDY    77  73  86 CALM      29.96F
*KERRVILLE     CLOUDY    79  74  85 SE16      29.98R
*FREDERICKSBRG CLOUDY    76  70  82 SE8       29.97F
*ROCKSPRINGS   HVY RAIN  70  66  88 SW14G20   30.06R
*BOERNE STAGE  CLOUDY    75  72  88 SE8       29.97F
*CASTROVILLE   CLOUDY    80  72  76 SE6       29.94F
HONDO          PTCLDY    81  73  76 SE9       29.93S
*UVALDE        PTCLDY    80  72  75 SE12G20   29.92R
DEL RIO        CLOUDY    72  70  93 W5G21     29.92R
LAUGHLIN AFB   CLOUDY    72  72 100 W16       29.93R
CARRIZO SPRGS  MOCLDY    82  70  65 SE14G23   29.87S
*EAGLE PASS    NOT AVBL
$$

TXZ173-191>194-202-209-217>225-228-250600-
CENTRAL AND SOUTH CENTRAL TEXAS

CITY           SKY/WX    TMP DP  RH WIND       PRES   REMARKS
GEORGETOWN     PTCLDY    75  72  88 E3        29.97R
AUSTIN/BERGSTM PTCLDY    74  72  93 CALM      29.95R
AUSTIN/MABRY   PTCLDY    78  73  84 CALM      29.96S
*AUSTIN/EXEC   PTCLDY    77  77 100 CALM      29.96F
*LAGO VISTA    CLOUDY    77  72  83 SE6       29.98S
SAN MARCOS     PTCLDY    73  72  94 CALM      29.97S
NEW BRAUNFELS  CLOUDY    75  73  93 CALM      29.92F
RANDOLPH AFB   CLOUDY    75  75 100 SE5       29.93F
PT SAN ANTONIO CLOUDY    79  74  85 E6        29.90F
SAN ANTONIO    CLOUDY    78  74  87 SE9       29.93F
STINSON FIELD  CLOUDY    79  74  84 E7        29.90F
*PLEASANTON    CLOUDY    80  74  80 SE6       29.91F
*LA GRANGE     PTCLDY    77  75  93 CALM      29.94R
*GIDDINGS      PTCLDY    75  73  93 SE5       30.00R
*GONZALES      PTCLDY    77  76  99 SE5       29.93S
$$

TXZ163>164-176>182-195>201-210>213-226-227-235-250600-
SOUTHEAST TEXAS

CITY           SKY/WX    TMP DP  RH WIND       PRES   REMARKS
COLLEGE STN    PTCLDY    77  75  93 SE6       29.97R
*BRYAN         PTCLDY    74  74 100 CALM      29.98R
*CALDWELL      NOT AVBL
*CROCKETT      NOT AVBL
*BRENHAM       PTCLDY    77  75  94 CALM      29.97R
HUNTSVILLE     PTCLDY    77  74  90 CALM      29.98S
CONROE         MOCLDY    76  74  93 E3          N/A
HOUSTON BUSH   MOCLDY    76  75  97 CALM      29.96S
HOUSTON HOBBY  CLOUDY    77  74  90 CALM      29.95R
*HOUSTON SW AP CLOUDY    75  73  94 CALM      29.95F
PEARLAND       CLOUDY    78  74  87 CALM      29.96S
HOUSTON HOOKS  CLOUDY    78  75  90 E5        29.96S
ELLINGTON FLD  NOT AVBL
SUGAR LAND     CLOUDY    78  74  87 E3        29.94F
*HOUSTON EXEC  CLOUDY    75  75 100 E5        29.96F
*CLEVELAND MUN CLOUDY    75  73  96 CALM      29.99R FOG
*WHARTON       CLEAR     75  74  95 SE3       29.94F
*COLUMBUS      FAIR      76  75  99 SE3       29.95S
*EAGLE LAKE    PTCLDY    76  75  98 CALM      29.94S
$$

TXZ214>216-236>238-250600-
THE UPPER TEXAS COAST

CITY           SKY/WX    TMP DP  RH WIND       PRES   REMARKS
*ORANGE        PTCLDY    77  77 100 CALM      29.99R
PORT ARTHUR    MOCLDY    79  75  87 SE5       29.96R
GALVESTON      MOCLDY    81  75  82 SE8       29.96R
ANGLETON       MOCLDY    76  75  97 CALM      29.94F
*BAY CITY      PTCLDY    77  76  98 SE3       29.95S
PALACIOS       PTCLDY    78  76  93 NE7       29.93S
$$

TXZ229>234-239>247-250600-
TEXAS COASTAL BEND AND RIO GRANDE PLAINS

CITY           SKY/WX    TMP DP  RH WIND       PRES   REMARKS
VICTORIA       CLEAR     75  74  96 E6        29.93S
*BEEVILLE      CLEAR     78  78 100 SE3       29.91S
ROCKPORT       PTCLDY    85  77  77 S8        29.90S HX  95
*PORT ARANSAS  PTCLDY    84  76  77 S15       29.90S HX  93
*PORT LAVACA   CLEAR     79  77  93 CALM      29.92F FOG
*INGLESIDE     CLEAR     84  77  81 S7        29.89F HX  93
CORPUS CHRISTI CLEAR     82  77  84 SE9       29.89S HX  90
CORPUS NAS     PTCLDY    85  79  82 S12       29.89F HX  98
*ROBSTOWN      CLEAR     82  76  82 SE6       29.90S HX  90
ALICE          CLEAR     79  75  87 S6        29.89S
KINGSVILLE NAS CLEAR     81  77  88 SE9       29.89S
COTULLA        MOCLDY    85  72  65 SE12      29.89F HX  91
*FAITH RANCH     N/A    N/A N/A N/A MISG        N/A
LAREDO         MOCLDY    86  69  56 SE12      29.89R HX  90
$$

TXZ248>255-250600-
DEEP SOUTH TEXAS

CITY           SKY/WX    TMP DP  RH WIND       PRES   REMARKS
BROWNSVILLE    CLEAR     83  75  77 S9        29.91S HX  90
PORT ISABEL    CLEAR     84  76  76 S10       29.90S HX  93
*SOUTH PADRE     N/A     84  75  74 S17       29.91S HX  92
HARLINGEN      CLEAR     82  77  84 S12       29.90R HX  90
*HEBBRONVILLE  PTCLDY    81  73  76 SE9       29.91S
MCALLEN        PTCLDY    85  75  72 SE12      29.90F HX  93
*WESLACO       PTCLDY    83  75  75 S12G17    29.89F HX  90
FALFURRIAS     CLEAR     82  73  75 SE9       29.89R
EDINBURG       CLEAR     83  74  73 SE7       29.89F HX  90
*ZAPATA        CLEAR     84  71  64 SE8       29.88R
$$

TXZ213>215-236>238-242>244-246-247-251-254-255-250600-
CMAN STATIONS

STATION/POSITION TIME  TEMP    WIND        PRES    WAVE
                       AIR SEA DIR/SP/G            HT/PER
                 (UTC) (F)     (DEG/KT/KT) (MB)    (FT/S)
SABINE PASS      0400   82 87  170/  5/ 10 1015.8
SEA RIM ST PARK  0400   82     160/  7/  9 1014.9
NORTH JETTY/GLS  0400   83 86  140/  8/ 10   N/A
EAGLE POINT      0400   84 85  170/  9/ 11 1013.8
MORGANS POINT    0400   83 86  130/  6/  9 1014.1
MISSION/ARANSAS  0400   86                 1013.0
PORT ARANSAS     0400   85 86  160/ 16/ 17 1012.5
MALAQUITE BEACH  0400   86 87  150/ 17/ 19 1012.7
BAFFIN BAY       0400   85 85  160/ 14/ 18 1012.4
PORT ISABEL      0400   85 88  160/ 12/ 16 1012.9
$$

GMZ080-GMZ150>470-250600-
OFFSHORE BUOY REPORTS

STATION/POSITION TIME  TEMP    WIND        PRES    WAVE
                       AIR SEA DIR/SP/G            HT/PER
                 (UTC) (F)     (DEG/KT/KT) (MB)    (FT/S)
20 E GALVESTON   0350   83 86  150/  8/ 10 1014.1    2/ 4
90 E PT ARANSAS  0350   84 86  130/  6/  8 1013.7    3/ 5
35 NE PT MANSFLD 0350   86 86  170/ 16/ 19 1012.1    4/ 5
200 E PT ISABEL  0350   85 87  130/ 12/ 16 1013.2    2/ 5
$$




USA.gov is the U.S. government's official web portal to all federal, state and local government web resources and services.